Location: Strada George Coșbuc
(47.6577°N, 23.5639°E)
Time: 03:49:26
(UTC+02:00)

ISS - Pass Details

Date: 01 October 2017
Orbit: 402 x 407 km, 51.6° (Epoch: 23 November)

Event Time Altitude Azimuth Distance (km) Brightness Sun altitude
Rises 21:38:00 0° 279° (W) 2,336 1.2 -25.9°
Reaches altitude 10° 21:40:10 10° 287° (WNW) 1,477 0.0 -26.2°
Enters shadow 21:41:51 25° 305° (NW) 884 -1.5 -26.5°
